User: anonymous   Login
Location: Caltech
(34.1382°N, 118.1253°W)
Time: 03:28:10
(UTC-07:00)
Language:

COSMOS 2428 - Orbit

View from above orbital plane
View from above orbital plane
View from above satellite
View from above satellite

Ground track
Ground track

The orbit data is extracted from the following two-line orbital elements,

1 31792U 07029A   16270.15337201 -.00000386  00000-0 -18339-3 0  9994
2 31792  70.9238 246.4170 0010961 311.3718  48.6459 14.12308854476793
Epoch (UTC): 26 September 2016 03:40:51
Eccentricity: 0.0010961
inclination: 70.9238°
perigee height: 843 km
apogee height: 859 km
right ascension of ascending node: 246.4170°
argument of perigee: 311.3718°
revolutions per day: 14.12308854
mean anomaly at epoch: 48.6459°
orbit number at epoch: 47679

The dashed part of the orbit path shows where the satellite is in the earth's shadow,  

DLR